Regional Weather Roundup
Issued by NWS Northern Indiana

Home | Current Version | Previous Version | Text Only | Print | Product List | Glossary Off
Versions: 1 2 3 4 5 6 7 8 9 10 11 12 13 14 15 16 17 18 19 20 21 22 23 24 25 26 27 28 29 30 31 32 33 34 35 36 37 38 39 40 41 42 43 44 45 46 47 48 49 50

000
ASUS43 KIWX 280710
RWRIWX

KIWX WEATHER ROUNDUP
NATIONAL WEATHER SERVICE NORTHERN INDIANA
300 AM EDT SAT MAY 28 2016

NOTE: "FAIR" INDICATES FEW OR NO CLOUDS BELOW 12,000 FEET WITH NO
SIGNIFICANT WEATHER AND/OR OBSTRUCTIONS TO VISIBILITY.

* THESE STATIONS ARE NOT UNDER NWS QUALITY CONTROL. THEY ALSO MAY NOT
  REPORT WEATHER SUCH AS PRECIPITATION OR FOG.

INZ001>027-280800-
NORTHERN INDIANA

CITY           SKY/WX    TMP DP  RH WIND       PRES   REMARKS
GARY*          CLOUDY    71  71 100 S6        29.89S
VALPARAISO     CLOUDY    69  64  84 SE7       29.92S
MICHIGAN CITY* CLOUDY    68  68 100 S5        29.91F
LAPORTE*       CLOUDY    70  70 100 SE3       29.93S
KNOX*          CLOUDY    68  61  77 SE9       29.92S
SOUTH BEND     CLOUDY    71  64  78 SE7       29.93F
GOSHEN         CLOUDY    71  59  65 S5        29.95S
MONTICELLO*    CLOUDY    72  61  68 SE5       29.92S
LOGANSPORT*    PTCLDY    72  61  68 SE8       29.94S
ROCHESTER*     CLOUDY    75  63  64 SE3       29.94F
WARSAW*        CLOUDY    72  59  64 S3        29.95S
ANGOLA*          N/A     70  61  73 S5        29.97F
FORT WAYNE     PTCLDY    70  62  76 SE8       29.98S
HUNTINGTON*    CLEAR     71  63  75 S5        29.97S
PERU/GRISSOM   CLOUDY    73  63  69 S8        29.94S
MARION*        CLOUDY    71  63  74 SE8       29.97S

$$
INZ028>050-280800-
CENTRAL INDIANA

CITY           SKY/WX    TMP DP  RH WIND       PRES   REMARKS
LAFAYETTE      CLOUDY    71  62  73 SE5       29.91F
KOKOMO*        CLOUDY    73  61  64 S10       29.95S
MUNCIE*        CLEAR     74  63  68 S6        29.98F
INDIANAPOLIS   CLOUDY    73  64  73 S10       29.94S

$$
MIZ043>046-050>051-056>058-064>065-071>073-077>080-280800-
SOUTHWEST LOWER MICHIGAN

CITY           SKY/WX    TMP DP  RH WIND       PRES   REMARKS
BATTLE CREEK   CLEAR     71  59  65 S9        29.96S
BENTON HARBOR  CLOUDY    69  65  86 SE5       29.90F
COLDWATER*     CLEAR     71  60  67 S6        29.96F
HILLSDALE*     CLEAR     71  56  58 S5        29.99F
HOLLAND        CLOUDY    69  65  86 S5        29.92S
GRAND RAPIDS   CLOUDY    70  64  81 SE6       29.93S
KALAMAZOO      CLOUDY    72  59  63 S5        29.95S
STURGIS*       CLOUDY    72  59  64 S8        29.95S
THREE RIVERS*  FAIR      71  59  66 CALM      29.95S

$$
OHZ001>008-015>018-024>025-280800-
NORTHWEST OHIO

CITY           SKY/WX    TMP DP  RH WIND       PRES   REMARKS
WAUSEON*         N/A     70  70 100 S7        29.99S
DEFIANCE       CLEAR     74  61  63 S6        29.98F
FINDLAY        CLEAR     69  59  70 S8        30.00F
TOLEDO EXPRESS CLEAR     72  60  66 S5        29.98F
TOLEDO METCALF CLEAR     74  60  61 S9        30.00S
LIMA           CLEAR     69  61  75 SE6       30.01F

$$
AND FOR LAKE MICHIGAN COASTAL AND OPEN LAKE BUOY OBSERVATIONS

STATION/POSITION TEMP    WIND        PRES    VSBY  WAVE
                 AIR SEA DIR/SP/G                  HT/PER
                 (F)     (DEG/KT/KT) (MB)    (MI)  (FT/S)
CALUMET HARBOR    71                 1011.2F
MICHIGAN CITY     70     140/  9/ 13   N/A
BURNS HARBOR      70     160/ 10/ 16 1012.9R
SAINT JOSEPH      70      CALM  /  4 1013.2F
SOUTH LAKE BUOY   55 50  150/ 10/ 12 1011.3F         2/ 3
4 MI NW BRIDGMAN  66 61  140/  8/ 10   N/A           1/ 3
MICHIGAN CITY     65 58  170/  8/  8   N/A           1

$$
&&



USA.gov is the U.S. government's official web portal to all federal, state and local government web resources and services.